Location: ??????
(56.0120°N, 39.1740°E)
Time: 20:51:09
(UTC+00:00)

Cosmos 1867 - Pass Details

Date: 14 April 2026
Orbit: 775 x 798 km, 65.0° (Epoch: 11 May)

Event Time Altitude Azimuth Distance (km) Brightness Sun altitude
Exits shadow 23:44:20 30° 196° (SSW) 1,379 4.3 -18.1°
Maximum altitude 23:46:52 59° 130° (SE) 915 3.8 -17.9°
Drops below altitude 10° 23:52:14 10° 51° (NE) 2,378 7.3 -17.4°
Sets 23:54:42 0° 48° (NE) 3,313 8.5 -17.2°
